cubair logo

For once you have tasted flight you will walk the earth with your eyes turned skywards,
for there you have been and there you will long to return.


"Leonardo da Vinci"

Welcome To CubAir Flight!

Cub Air Flight was founded in 2006, by Steve and Sharon Krog. Cub Air Flight school uses vintage Piper J3 Cub aircraft to instruct in, following a philosophy that “old school is still cool.” Cub Air Flight believes that these fine classic airplanes make better pilots by requiring more attention and flying skill than newer airplanes. We at Cub Air Flight hold that flying a vintage airplane is as much an art as it is a science.

The Piper J3 Cub is revered among aviators as a truly classic and iconic airplane. It has served as a trainer to more pilots than almost any airplane, earning a reputation as easy to fly but yet challenging enough to force students to continually better themselves. Cub Air uses two J3 Cubs, restored and maintained with the same attention to detail as a lovingly restored classic car. Cub Air also uses a Piper Cherokee for training requiring an aircraft with more advanced instruments.

Come fly with us and feel the freedom of
flying, the way it's supposed to be!


"Old School Is Still Cool!"

 

Our Instructors

Steve Krog

Find Us Here!

Hartford Municipal

Airport (KHXF)

4200 Highway U

Hartford, WI 53027

Our Staff

Steve Krog
Sharon Krog
Jamie Weber
Chris Hibben

Oshkosh Weather

[Source: ADDS]
METAR
KOSH 300253Z 03010KT 10SM CLR 16/11 A3033 RMK AO2 SLP267 T01610111 51004 =
TAF

West Bend Weather

[Source: ADDS]
METAR
KETB 300255Z AUTO 04009G14KT 10SM SCT043 18/17 A3030 RMK AO2 =
TAF

Juneau Weather

[Source: ADDS]
METAR
KUNU 300255Z AUTO 02007KT 10SM CLR 14/12 A3031 RMK AO2 T01380118 =
TAF

Fond Du Lac Weather

[Source: ADDS]
METAR
KFLD 300253Z AUTO 03009KT 10SM CLR 15/12 A3032 RMK AO2 SLP269 T01500122 50001 =
TAF